Simultaneous Nadir Overpasses (SNOs) Predictions

Prediction of SNOs between GOES-15 and FY3D Satellite Orbit:

Table of predicted SNOs for the next 14.0 days since TLE Epoch: 12/24/2022
Index Date Time (GOES-15) GOES-15 Lat,Lon FY3D Lat,Lon Distance(km) Time Diff (sec)
1 12/26/2022 10:26:31 -0.00,-127.58 0.01,-127.60 2.62 80
2 12/28/2022 22:33:27 0.01,-127.60 -0.24,-128.60 115.43 80
3 12/29/2022 22:12:28 0.01,-127.63 0.82,-124.18 394.29 80
4 12/31/2022 10:34:54 -0.01,-127.75 0.42,-129.57 208.23 80
5 01/01/2023 10:19:15 -0.01,-127.79 -0.63,-125.15 301.57 80
6 01/02/2023 22:41:50 0.01,-127.77 -0.64,-130.58 321.03 80
7 01/03/2023 22:20:50 0.01,-127.79 0.37,-126.14 188.16 80
8 01/05/2023 10:43:16 -0.01,-127.90 0.81,-131.55 415.80 80
9 01/06/2023 10:27:37 -0.00,-127.93 -0.19,-127.11 93.35 80
